Flag for USA

Past Weather in 38°12'09.2"N, 85°40'51.6"W, USA — Yesterday and Last 2 Weeks

Now
93 °F

Passing clouds.


Feels Like: 96 °F
Forecast: 92 / 71 °F
Wind: 8 mph from Northwest

Location: Standiford Field

Current Time: Jun 6, 2020 at 5:58:01 pm

Latest Report: Jun 6, 2020 at 4:56 pm


Visibility: 10 mi

Pressure: 29.91 "Hg

Humidity: 41%

Dew Point: 66 °F

Location of 38°12'09.2"N, 85°40'51.6"WLocation

Past Weather in 38°12'09.2"N, 85°40'51.6"W — Graph

°F

38°12'09.2"N, 85°40'51.6"W Temperature Yesterday

Maximum temperature yesterday: 88 °F (at 4:56 pm)
Minimum temperature yesterday: 68 °F (at 12:56 am)
Average temperature yesterday: 78 °F

High & Low Weather Summary for the Past Weeks

 TemperatureHumidityPressure
High93 °F (Jun 6, 3:56 pm)97% (May 24, 1:56 am)30.31 "Hg (May 24, 1:56 am)
Low56 °F (Jun 1, 5:56 am)21% (Jun 1, 4:56 pm)29.76 "Hg (Jun 4, 4:56 pm)
Average75 °F68%29.99 "Hg
* Reported May 22 3:56 pm — Jun 6 3:56 pm, 38°12'09.2"N, 85°40'51.6"W. Weather by CustomWeather, © 2020

Note: Actual official high and low records may vary slightly from our data, if they occured in-between our weather recording intervals... More about our weather records

38°12'09.2"N, 85°40'51.6"W Weather History for the Previous 24 Hours

Scroll right to see more
 ConditionsComfort  
Time TempWeatherWind HumidityBarometerVisibility
3:56 pm
Sat, Jun 6
93 °FScattered clouds.8 mph41%29.95 "Hg10 mi
2:56 pm92 °FPartly sunny.9 mph46%29.96 "Hg10 mi
1:56 pm92 °FPartly sunny.3 mph47%29.96 "Hg10 mi
12:56 pm90 °FScattered clouds.8 mph48%29.99 "Hg10 mi
11:56 am88 °FPassing clouds.3 mph55%29.99 "Hg10 mi
10:56 am86 °FPassing clouds.No wind61%29.99 "Hg10 mi
9:56 am84 °FPassing clouds.No wind65%29.99 "Hg10 mi
8:56 am79 °FPassing clouds.No wind74%29.98 "Hg10 mi
7:56 am75 °FPartly sunny.No wind85%29.97 "Hg10 mi
6:56 am73 °FBroken clouds.3 mph88%29.96 "Hg10 mi
5:56 am75 °FPassing clouds.No wind82%29.94 "Hg10 mi
4:56 am73 °FPassing clouds.No wind88%29.93 "Hg10 mi
3:56 am75 °FPassing clouds.3 mph82%29.93 "Hg10 mi
2:56 am76 °FPassing clouds.5 mph80%29.94 "Hg10 mi
1:56 am77 °FPassing clouds.3 mph77%29.94 "Hg10 mi
12:56 am78 °FPassing clouds.No wind74%29.94 "Hg10 mi
11:56 pm
Fri, Jun 5
79 °FPassing clouds.3 mph69%29.94 "Hg10 mi
10:56 pm79 °FOvercast.5 mph69%29.93 "Hg10 mi
9:56 pm81 °FMostly cloudy.5 mph65%29.91 "Hg10 mi
8:56 pm83 °FBroken clouds.7 mph57%29.90 "Hg10 mi
7:56 pm85 °FBroken clouds.8 mph51%29.89 "Hg10 mi
6:56 pm87 °FPartly sunny.7 mph48%29.86 "Hg10 mi
5:56 pm88 °FScattered clouds.7 mph45%29.86 "Hg10 mi
Weather by CustomWeather, © 2020

See weather overview

Advertising